SCP
0 0 0 0 0 0 0 0 0 0 0 0 0 0 0 0 0 0 0 0 0 0 0 0 0 0 0 0 0 0 0 0 0 0 0 0 0 0 0 0 0 0 0
0 0 0 0 0 0 0 0 0 0 0 0 0 0 0 0 0 0 0 0 0 0 0 0 0 0 0 0 0 0 0 0 0 0 0 0 0 0 0 0 0 0 0
0 0 0 0 0 0 0 0 0 0 0 0 0 0 0 0 0 0 0 0 0 0 0 0 0 1 0 0 0 0 0 0 0 0 0 0 0 0 0 0 0 0 0
0 0 0 0 0 0 0 0 0 0 0 0 0 0 0 0 0 0 0 0 0 1 1 0 1 0 0 0 0 0 0 0 0 0 0 0 0 0 0 0 0 0 0
0 0 0 0 0 0 0 0 0 0 0 0 0 0 0 0 0 0 0 0 0 0 1 1 0 0 0 0 0 0 0 0 0 0 0 0 0 0 0 0 0 0 0
0 0 0 0 0 0 0 0 0 0 0 0 0 0 0 0 0 0 0 0 0 0 1 0 0 0 0 0 0 0 0 0 0 0 0 0 0 0 0 0 0 0 0
0 0 0 0 0 0 0 0 0 0 0 0 0 0 0 0 0 0 0 0 0 0 0 0 0 0 0 0 0 0 0 0 0 0 0 0 0 0 0 0 0 0 0
0 0 0 0 0 0 0 0 0 0 0 0 0 0 0 0 0 0 0 0 0 0 0 0 0 0 0 0 0 0 0 0 -0 0 0 0 0 0 0 0 0 0 0
1 0 0 0 0 0 0 0 0 0 0 0 0 0 0 0 0 0 0 0 0 0 0 0 0 0 0 0 0 0 0 0 0 0 0 0 0 0 0 0 0 0 0
1 1 0 0 0 0 0 0 0 0 0 0 0 0 0 0 0 0 0 0 0 0 0 0 0 0 0 0 0 0 0 0 0 0 0 0 0 0 0 0 0 0 0
1 1 1 0 0 0 0 0 0 0 0 0 0 0 0 0 0 0 0 0 0 0 0 0 0 0 0 0 0 0 0 0 0 0 0 0 0 0 0 0 0 0 0
0 0 1 1 0 0 0 0 0 0 0 0 0 0 0 1 0 0 0 0 0 0 0 0 0 0 0 0 0 0 0 0 0 0 0 0 0 0 0 0 0 0 0
0 0 0 0 0 0 0 0 0 0 0 0 0 0 0 0 0 0 0 0 0 0 0 0 0 0 0 0 0 0 0 0 0 0 0 0 0 0 0 0 0 0 0
0 0 1 1 0 0 0 0 0 0 0 0 0 0 0 0 0 0 0 0 0 0 0 0 0 0 0 0 0 0 0 0 0 0 0 0 0 0 0 0 0 0 0
0 0 1 1 1 1 0 0 0 0 0 0 0 0 0 0 0 0 0 0 0 0 0 0 0 0 0 0 0 0 0 0 0 0 0 0 0 0 0 0 0 0 0
0 1 1 1 1 1 0 0 0 0 0 0 0 0 0 0 0 0 0 0 0 0 0 0 0 0 0 0 0 0 0 0 0 0 0 0 0 0 0 0 0 0 0
1 1 1 1 1 1 0 0 0 0 0 0 0 0 0 0 0 0 0 0 0 0 0 0 0 0 0 0 0 0 0 0 0 0 0 0 0 0 0 0 0 0 0
1 1 1 1 1 0 0 0 0 0 0 0 0 0 0 0 0 0 0 0 0 0 0 0 0 0 0 0 0 0 0 0 0 0 0 0 0 0 0 0 0 0 0
1 1 1 1 1 0 0 0 0 0 0 0 0 0 0 0 0 0 0 0 0 0 0 0 0 0 0 0 0 0 0 0 0 0 0 0 0 0 -0 0 0 0 0
1 1 1 1 0 0 0 0 0 0 0 0 0 0 0 0 0 0 0 0 0 0 0 -0 0 0 0 0 0 0 0 0 0 0 0 0 0 0 -0 0 0 0 0
1 1 1 0 0 0 0 0 0 0 0 0 0 0 0 0 0 0 0 0 0 0 0 0 0 0 0 0 0 0 0 0 0 0 0 0 0 0 0 0 0 0 -0
1 0 0 0 0 0 0 0 0 0 0 0 0 0 0 0 0 0 0 0 0 0 0 0 0 0 0 0 0 0 0 0 0 0 0 0 0 0 0 0 0 0 0
0 0 0 0 0 0 0 0 0 0 0 0 0 0 0 0 0 0 0 0 0 0 0 0 -0 -0 0 0 0 0 0 0 0 0 0 0 0 0 0 0 0 0 0
0 0 0 0 0 0 0 0 0 0 0 0 0 0 0 0 0 0 0 0 0 0 0 0 0 -0 0 0 0 0 0 0 0 0 0 0 0 0 0 0 0 0 0
0 0 0 0 0 0 0 0 0 0 0 0 0 0 0 0 0 0 0 0 0 0 0 0 0 0 0 0 0 0 0 0 0 0 0 0 0 0 0 0 0 0 0
0 0 0 0 0 0 0 0 0 0 0 0 0 0 0 0 -0 0 0 0 0 0 0 0 0 0 0 0 0 0 0 0 0 0 0 0 0 0 0 0 0 0 0
Wind_Speed_500mb
56 55 55 54 52 49 53 51 50 50 52 51 50 49 48 45 43 36 31 33 32 29 27 22 21 23 25 26 19 20 25 29 32 34 34 36 35 36 38 39 37 33 29
60 60 59 59 56 49 53 51 49 50 50 51 52 50 49 47 46 43 36 34 34 30 29 23 21 22 25 29 26 22 25 30 31 32 36 36 33 35 37 39 39 36 31
57 59 59 58 53 44 47 47 46 46 48 47 50 47 44 43 43 41 39 35 33 32 29 23 25 32 31 31 28 26 25 30 33 33 35 34 32 31 35 35 37 34 31
49 55 56 55 50 43 44 46 44 42 43 42 43 39 37 35 35 36 34 34 36 31 29 28 35 35 35 38 32 28 25 32 35 35 35 35 34 33 34 37 37 34 32
54 56 54 53 50 44 50 47 47 43 42 40 40 34 33 32 29 29 30 30 31 33 34 35 37 41 40 37 35 31 26 27 35 38 40 38 35 34 35 36 36 38 27
69 55 50 52 51 52 55 50 51 46 42 41 38 37 35 32 27 23 26 29 35 34 35 36 31 32 33 33 36 34 30 30 29 40 42 40 38 35 37 36 36 39 29
81 53 50 54 55 60 56 52 52 50 45 45 38 40 37 34 31 25 27 31 35 32 34 33 33 33 32 34 34 38 35 31 32 35 43 44 39 34 35 35 37 40 31
69 56 51 57 57 63 59 53 52 50 49 46 41 35 27 32 32 29 33 36 36 36 38 40 40 36 34 35 35 35 37 32 31 33 39 48 44 37 34 34 39 39 35
74 58 54 62 62 66 61 56 52 49 47 43 41 34 10 17 12 19 27 35 37 35 32 32 37 34 35 37 34 34 36 34 35 34 38 45 47 39 33 33 37 37 36
75 65 61 66 66 66 61 55 53 48 44 44 38 43 43 27 11 9 10 20 21 19 30 24 27 31 33 35 35 36 35 34 33 31 35 41 43 37 33 31 34 33 32
65 61 70 67 62 61 54 48 47 44 42 38 40 32 39 45 44 42 30 27 24 18 17 18 22 26 31 36 37 36 33 39 35 30 28 35 38 36 32 28 31 29 26
59 63 68 62 57 57 52 49 38 40 32 30 30 35 38 40 44 45 45 41 36 26 18 19 24 31 34 36 34 29 29 34 38 29 31 30 34 34 29 27 28 26 26
64 64 61 56 52 48 48 42 36 32 30 34 32 34 36 37 33 36 36 35 30 20 18 21 24 26 27 23 21 25 28 32 31 31 36 34 33 32 28 27 28 26 26
58 56 52 48 44 36 38 36 34 31 28 32 31 32 30 29 29 36 37 32 28 19 23 25 23 20 16 15 20 23 24 36 32 29 33 32 31 27 26 26 30 29 25
62 55 50 46 36 35 36 36 33 29 29 32 29 28 26 27 29 34 34 28 22 19 26 21 18 12 9 11 18 19 25 27 28 29 29 28 28 28 29 24 27 28 31
59 52 47 41 38 38 38 34 29 28 28 29 31 30 26 26 29 27 22 19 19 23 21 12 13 11 13 11 18 19 29 32 29 26 26 28 27 28 34 31 30 30 29
57 47 45 43 41 43 38 32 30 30 29 32 27 23 22 23 24 22 21 21 22 21 20 18 16 13 11 14 19 31 38 36 26 25 25 28 29 29 33 38 36 37 32
49 44 40 43 43 37 33 34 31 35 34 30 26 25 24 25 24 20 19 18 16 16 16 18 18 16 10 17 23 27 34 31 28 26 27 26 29 34 30 36 27 37 22
45 42 41 44 37 37 33 30 34 33 30 24 23 23 23 24 23 19 17 16 18 13 13 17 24 22 27 24 28 30 31 31 31 30 29 30 29 31 35 35 40 31 23
44 43 45 39 44 37 36 36 34 28 23 22 24 23 23 21 20 18 17 20 20 12 12 17 20 28 35 35 29 33 32 28 30 31 33 32 30 31 35 35 31 33 26
41 46 49 44 43 39 37 37 30 24 22 24 27 27 24 20 17 17 18 23 21 14 14 19 26 30 36 35 37 35 34 33 33 32 32 35 35 34 34 31 31 38 26
45 43 46 47 40 39 35 24 20 20 21 22 23 26 27 25 22 19 21 21 16 12 18 24 28 30 34 36 35 34 35 36 35 33 33 37 34 32 33 33 36 34 29
52 52 49 48 45 34 31 25 22 20 17 18 21 26 28 30 27 26 27 27 20 14 9 14 21 27 30 32 33 37 38 39 37 36 34 35 35 31 28 30 28 26 25
56 49 46 42 38 33 28 24 22 20 20 20 20 20 21 25 30 31 31 33 27 22 17 17 19 9 20 26 29 33 38 36 35 35 40 39 32 36 30 32 31 26 27
53 48 44 38 33 31 25 23 21 20 17 15 15 17 19 25 30 29 30 33 28 27 25 22 20 16 12 17 27 34 40 40 43 41 36 34 33 34 36 32 32 28 28
52 43 39 36 25 21 22 22 19 16 16 14 16 21 23 19 24 24 29 29 26 28 27 27 25 22 20 19 18 28 38 42 43 33 41 32 38 34 31 38 35 32 33
Wind_Direction_500mb
256 261 265 265 267 269 272 271 272 272 275 274 272 271 267 266 266 264 258 246 252 265 275 273 266 275 285 293 295 282 250 237 235 231 228 230 233 227 226 221 223 222 237
268 267 269 271 271 275 276 275 275 274 273 274 273 270 269 266 266 265 260 250 248 263 266 270 272 282 283 290 287 283 258 238 231 228 228 229 231 229 227 223 219 222 226
268 270 269 270 270 274 272 272 272 270 270 273 274 272 270 269 268 266 258 247 243 256 259 262 277 282 276 292 287 276 267 242 231 227 228 229 232 226 223 221 222 226 230
263 266 267 270 270 267 267 269 269 268 268 271 274 276 273 270 270 269 257 243 237 247 252 252 281 269 268 285 277 275 273 246 232 228 230 232 231 227 224 224 225 225 235
260 262 268 274 273 268 266 267 269 266 267 271 273 274 270 266 271 264 237 235 230 248 248 256 272 270 264 271 265 269 272 255 232 229 228 233 233 230 227 226 223 220 232
257 259 266 275 278 273 267 268 269 270 268 269 266 265 260 259 263 254 233 234 239 258 259 267 276 264 261 258 260 262 270 259 242 230 229 228 231 228 228 225 223 224 234
253 259 267 272 274 274 275 272 268 267 268 266 262 262 257 256 258 254 240 237 253 258 259 261 267 272 255 255 264 259 259 260 248 236 230 229 227 228 231 227 228 232 229
258 260 266 271 274 275 274 274 271 271 270 262 253 259 265 260 257 256 244 248 254 259 258 262 264 263 251 254 262 260 254 252 250 240 230 229 226 227 232 233 231 229 232
259 259 267 270 273 277 278 276 275 275 272 266 249 239 214 225 225 243 240 247 254 259 264 263 253 254 255 251 258 257 252 248 245 252 229 226 222 224 228 231 231 227 234
265 258 264 266 269 274 272 274 272 273 269 262 242 236 232 240 225 208 214 246 227 246 279 269 258 255 249 250 254 261 247 244 244 246 224 217 214 218 225 230 227 226 226
259 251 258 261 264 267 261 271 266 262 266 261 238 236 238 242 250 253 274 262 258 284 273 271 264 261 258 260 263 258 244 234 233 235 226 210 210 215 224 225 219 214 217
243 250 253 256 264 268 259 260 252 253 264 255 243 247 243 244 249 253 257 262 274 276 273 277 280 274 269 267 258 246 236 230 213 220 216 209 214 217 222 221 216 207 199
243 249 251 258 268 268 254 240 236 239 243 243 242 241 243 249 250 254 258 258 270 255 266 279 288 282 274 263 245 227 219 210 212 214 210 206 211 214 217 211 201 200 189
249 251 252 256 262 249 230 224 224 234 234 238 231 233 239 240 246 251 253 257 251 249 273 292 282 281 266 240 225 208 215 200 199 200 204 206 209 207 205 204 194 190 197
248 249 248 253 242 231 221 221 223 230 236 229 227 228 231 233 229 235 244 250 247 253 280 288 256 265 241 215 194 187 194 186 186 189 197 197 193 198 184 187 192 191 185
251 246 240 241 229 222 217 216 223 214 208 216 219 222 227 226 227 230 224 224 238 261 252 264 235 243 216 213 219 198 195 187 185 194 193 189 183 186 181 188 188 183 175
252 238 233 228 222 216 213 218 209 203 208 209 210 218 218 217 219 220 229 236 246 250 245 245 229 219 225 268 205 205 191 190 187 191 184 185 183 178 182 188 185 174 168
231 220 226 216 211 216 218 199 200 202 206 206 214 215 209 211 220 215 216 225 230 231 239 231 216 201 192 161 157 155 170 185 189 183 177 180 180 172 187 176 192 170 172
209 213 211 207 210 216 194 200 205 203 205 206 208 212 219 215 208 211 215 225 215 226 229 228 212 198 174 159 160 158 164 170 173 173 174 173 173 175 172 172 185 183 196
213 210 196 202 211 199 191 193 191 189 193 204 212 210 211 215 222 219 226 218 215 228 227 209 199 185 182 171 174 173 170 169 168 169 173 168 167 169 175 175 182 190 180
188 193 196 193 183 182 186 179 179 196 212 205 205 210 212 215 226 221 223 212 214 218 204 185 180 187 184 185 182 176 175 169 168 170 163 158 162 169 176 189 193 196 184
186 183 176 170 176 174 173 171 183 176 184 199 212 219 223 226 220 215 208 206 217 227 207 193 190 188 178 181 180 179 180 168 155 165 164 163 170 174 183 185 183 199 192
163 166 167 168 168 168 165 173 183 199 212 227 234 231 229 223 216 203 201 195 200 201 217 224 199 195 193 193 187 181 180 181 174 164 167 172 176 177 186 183 191 205 210
156 157 163 162 160 165 179 191 205 217 235 241 231 221 216 204 199 198 198 193 191 192 185 203 214 245 231 212 201 190 180 180 165 170 180 172 184 191 190 198 192 209 218
157 158 160 164 175 180 188 203 216 221 223 214 204 199 195 194 196 186 193 201 196 191 183 188 184 190 187 201 204 190 180 175 170 176 180 191 186 193 198 192 208 220 221
157 161 165 163 168 188 198 200 201 201 196 187 170 168 169 173 185 187 197 198 203 194 191 190 188 183 176 194 218 204 192 186 183 181 191 204 195 193 203 212 222 225 225
Wind_Speed_850mb
56 55 55 54 52 49 53 51 50 50 52 51 50 49 48 45 43 36 31 33 32 29 27 22 21 23 25 26 19 20 25 29 32 34 34 36 35 36 38 39 37 33 29
60 60 59 59 56 49 53 51 49 50 50 51 52 50 49 47 46 43 36 34 34 30 29 23 21 22 25 29 26 22 25 30 31 32 36 36 33 35 37 39 39 36 31
57 59 59 58 53 44 47 47 46 46 48 47 50 47 44 43 43 41 39 35 33 32 29 23 25 32 31 31 28 26 25 30 33 33 35 34 32 31 35 35 37 34 31
49 55 56 55 50 43 44 46 44 42 43 42 43 39 37 35 35 36 34 34 36 31 29 28 35 35 35 38 32 28 25 32 35 35 35 35 34 33 34 37 37 34 32
54 56 54 53 50 44 50 47 47 43 42 40 40 34 33 32 29 29 30 30 31 33 34 35 37 41 40 37 35 31 26 27 35 38 40 38 35 34 35 36 36 38 27
69 55 50 52 51 52 55 50 51 46 42 41 38 37 35 32 27 23 26 29 35 34 35 36 31 32 33 33 36 34 30 30 29 40 42 40 38 35 37 36 36 39 29
81 53 50 54 55 60 56 52 52 50 45 45 38 40 37 34 31 25 27 31 35 32 34 33 33 33 32 34 34 38 35 31 32 35 43 44 39 34 35 35 37 40 31
69 56 51 57 57 63 59 53 52 50 49 46 41 35 27 32 32 29 33 36 36 36 38 40 40 36 34 35 35 35 37 32 31 33 39 48 44 37 34 34 39 39 35
74 58 54 62 62 66 61 56 52 49 47 43 41 34 10 17 12 19 27 35 37 35 32 32 37 34 35 37 34 34 36 34 35 34 38 45 47 39 33 33 37 37 36
75 65 61 66 66 66 61 55 53 48 44 44 38 43 43 27 11 9 10 20 21 19 30 24 27 31 33 35 35 36 35 34 33 31 35 41 43 37 33 31 34 33 32
65 61 70 67 62 61 54 48 47 44 42 38 40 32 39 45 44 42 30 27 24 18 17 18 22 26 31 36 37 36 33 39 35 30 28 35 38 36 32 28 31 29 26
59 63 68 62 57 57 52 49 38 40 32 30 30 35 38 40 44 45 45 41 36 26 18 19 24 31 34 36 34 29 29 34 38 29 31 30 34 34 29 27 28 26 26
64 64 61 56 52 48 48 42 36 32 30 34 32 34 36 37 33 36 36 35 30 20 18 21 24 26 27 23 21 25 28 32 31 31 36 34 33 32 28 27 28 26 26
58 56 52 48 44 36 38 36 34 31 28 32 31 32 30 29 29 36 37 32 28 19 23 25 23 20 16 15 20 23 24 36 32 29 33 32 31 27 26 26 30 29 25
62 55 50 46 36 35 36 36 33 29 29 32 29 28 26 27 29 34 34 28 22 19 26 21 18 12 9 11 18 19 25 27 28 29 29 28 28 28 29 24 27 28 31
59 52 47 41 38 38 38 34 29 28 28 29 31 30 26 26 29 27 22 19 19 23 21 12 13 11 13 11 18 19 29 32 29 26 26 28 27 28 34 31 30 30 29
57 47 45 43 41 43 38 32 30 30 29 32 27 23 22 23 24 22 21 21 22 21 20 18 16 13 11 14 19 31 38 36 26 25 25 28 29 29 33 38 36 37 32
49 44 40 43 43 37 33 34 31 35 34 30 26 25 24 25 24 20 19 18 16 16 16 18 18 16 10 17 23 27 34 31 28 26 27 26 29 34 30 36 27 37 22
45 42 41 44 37 37 33 30 34 33 30 24 23 23 23 24 23 19 17 16 18 13 13 17 24 22 27 24 28 30 31 31 31 30 29 30 29 31 35 35 40 31 23
44 43 45 39 44 37 36 36 34 28 23 22 24 23 23 21 20 18 17 20 20 12 12 17 20 28 35 35 29 33 32 28 30 31 33 32 30 31 35 35 31 33 26
41 46 49 44 43 39 37 37 30 24 22 24 27 27 24 20 17 17 18 23 21 14 14 19 26 30 36 35 37 35 34 33 33 32 32 35 35 34 34 31 31 38 26
45 43 46 47 40 39 35 24 20 20 21 22 23 26 27 25 22 19 21 21 16 12 18 24 28 30 34 36 35 34 35 36 35 33 33 37 34 32 33 33 36 34 29
52 52 49 48 45 34 31 25 22 20 17 18 21 26 28 30 27 26 27 27 20 14 9 14 21 27 30 32 33 37 38 39 37 36 34 35 35 31 28 30 28 26 25
56 49 46 42 38 33 28 24 22 20 20 20 20 20 21 25 30 31 31 33 27 22 17 17 19 9 20 26 29 33 38 36 35 35 40 39 32 36 30 32 31 26 27
53 48 44 38 33 31 25 23 21 20 17 15 15 17 19 25 30 29 30 33 28 27 25 22 20 16 12 17 27 34 40 40 43 41 36 34 33 34 36 32 32 28 28
52 43 39 36 25 21 22 22 19 16 16 14 16 21 23 19 24 24 29 29 26 28 27 27 25 22 20 19 18 28 38 42 43 33 41 32 38 34 31 38 35 32 33
Wind_Direction_850mb
256 261 265 265 267 269 272 271 272 272 275 274 272 271 267 266 266 264 258 246 252 265 275 273 266 275 285 293 295 282 250 237 235 231 228 230 233 227 226 221 223 222 237
268 267 269 271 271 275 276 275 275 274 273 274 273 270 269 266 266 265 260 250 248 263 266 270 272 282 283 290 287 283 258 238 231 228 228 229 231 229 227 223 219 222 226
268 270 269 270 270 274 272 272 272 270 270 273 274 272 270 269 268 266 258 247 243 256 259 262 277 282 276 292 287 276 267 242 231 227 228 229 232 226 223 221 222 226 230
263 266 267 270 270 267 267 269 269 268 268 271 274 276 273 270 270 269 257 243 237 247 252 252 281 269 268 285 277 275 273 246 232 228 230 232 231 227 224 224 225 225 235
260 262 268 274 273 268 266 267 269 266 267 271 273 274 270 266 271 264 237 235 230 248 248 256 272 270 264 271 265 269 272 255 232 229 228 233 233 230 227 226 223 220 232
257 259 266 275 278 273 267 268 269 270 268 269 266 265 260 259 263 254 233 234 239 258 259 267 276 264 261 258 260 262 270 259 242 230 229 228 231 228 228 225 223 224 234
253 259 267 272 274 274 275 272 268 267 268 266 262 262 257 256 258 254 240 237 253 258 259 261 267 272 255 255 264 259 259 260 248 236 230 229 227 228 231 227 228 232 229
258 260 266 271 274 275 274 274 271 271 270 262 253 259 265 260 257 256 244 248 254 259 258 262 264 263 251 254 262 260 254 252 250 240 230 229 226 227 232 233 231 229 232
259 259 267 270 273 277 278 276 275 275 272 266 249 239 214 225 225 243 240 247 254 259 264 263 253 254 255 251 258 257 252 248 245 252 229 226 222 224 228 231 231 227 234
265 258 264 266 269 274 272 274 272 273 269 262 242 236 232 240 225 208 214 246 227 246 279 269 258 255 249 250 254 261 247 244 244 246 224 217 214 218 225 230 227 226 226
259 251 258 261 264 267 261 271 266 262 266 261 238 236 238 242 250 253 274 262 258 284 273 271 264 261 258 260 263 258 244 234 233 235 226 210 210 215 224 225 219 214 217
243 250 253 256 264 268 259 260 252 253 264 255 243 247 243 244 249 253 257 262 274 276 273 277 280 274 269 267 258 246 236 230 213 220 216 209 214 217 222 221 216 207 199
243 249 251 258 268 268 254 240 236 239 243 243 242 241 243 249 250 254 258 258 270 255 266 279 288 282 274 263 245 227 219 210 212 214 210 206 211 214 217 211 201 200 189
249 251 252 256 262 249 230 224 224 234 234 238 231 233 239 240 246 251 253 257 251 249 273 292 282 281 266 240 225 208 215 200 199 200 204 206 209 207 205 204 194 190 197
248 249 248 253 242 231 221 221 223 230 236 229 227 228 231 233 229 235 244 250 247 253 280 288 256 265 241 215 194 187 194 186 186 189 197 197 193 198 184 187 192 191 185
251 246 240 241 229 222 217 216 223 214 208 216 219 222 227 226 227 230 224 224 238 261 252 264 235 243 216 213 219 198 195 187 185 194 193 189 183 186 181 188 188 183 175
252 238 233 228 222 216 213 218 209 203 208 209 210 218 218 217 219 220 229 236 246 250 245 245 229 219 225 268 205 205 191 190 187 191 184 185 183 178 182 188 185 174 168
231 220 226 216 211 216 218 199 200 202 206 206 214 215 209 211 220 215 216 225 230 231 239 231 216 201 192 161 157 155 170 185 189 183 177 180 180 172 187 176 192 170 172
209 213 211 207 210 216 194 200 205 203 205 206 208 212 219 215 208 211 215 225 215 226 229 228 212 198 174 159 160 158 164 170 173 173 174 173 173 175 172 172 185 183 196
213 210 196 202 211 199 191 193 191 189 193 204 212 210 211 215 222 219 226 218 215 228 227 209 199 185 182 171 174 173 170 169 168 169 173 168 167 169 175 175 182 190 180
188 193 196 193 183 182 186 179 179 196 212 205 205 210 212 215 226 221 223 212 214 218 204 185 180 187 184 185 182 176 175 169 168 170 163 158 162 169 176 189 193 196 184
186 183 176 170 176 174 173 171 183 176 184 199 212 219 223 226 220 215 208 206 217 227 207 193 190 188 178 181 180 179 180 168 155 165 164 163 170 174 183 185 183 199 192
163 166 167 168 168 168 165 173 183 199 212 227 234 231 229 223 216 203 201 195 200 201 217 224 199 195 193 193 187 181 180 181 174 164 167 172 176 177 186 183 191 205 210
156 157 163 162 160 165 179 191 205 217 235 241 231 221 216 204 199 198 198 193 191 192 185 203 214 245 231 212 201 190 180 180 165 170 180 172 184 191 190 198 192 209 218
157 158 160 164 175 180 188 203 216 221 223 214 204 199 195 194 196 186 193 201 196 191 183 188 184 190 187 201 204 190 180 175 170 176 180 191 186 193 198 192 208 220 221
157 161 165 163 168 188 198 200 201 201 196 187 170 168 169 173 185 187 197 198 203 194 191 190 188 183 176 194 218 204 192 186 183 181 191 204 195 193 203 212 222 225 225